When you browse on this site, cookies collect data to enhance your experience and personalize the content and advertising you see.
Visit our Privacy Policy to learn more. By continuing to use the site, you agree to this use of cookies and data.
  • în România
  • Lista ţărilor
  • Pe 7 zile
  • Temperatura apei
  • Hartă satelitară
  • Meteo pe hartă
  • Widget-uri
  • user-avatar
    Intrare

    Meteo pe oră la Kayrakovo

    Astăzi, 24 Iulie, Miercuri

    Timp Temperatura Precipitaţii Vânt Presiune Umiditate
    00:00 +15°C° 0 mm 2 m/s 750 mmHg 94%
    01:00 +14°C° 0 mm 2 m/s 750 mmHg 95%
    02:00 +14°C° 0 mm 2 m/s 750 mmHg 95%
    03:00 +14°C° 0 mm 2 m/s 750 mmHg 95%
    04:00 +14°C° 0 mm 2 m/s 751 mmHg 96%
    05:00 +15°C° 0 mm 2 m/s 751 mmHg 95%
    06:00 +16°C° 0 mm 2 m/s 751 mmHg 93%
    07:00 +17°C° 0 mm 2 m/s 751 mmHg 92%
    08:00 +18°C° 0 mm 2 m/s 751 mmHg 87%
    09:00 +20°C° 0 mm 2 m/s 752 mmHg 82%
    10:00 +21°C° 0 mm 2 m/s 752 mmHg 77%
    11:00 +23°C° 0.4 mm 2 m/s 752 mmHg 75%
    12:00 +24°C° 0.4 mm 2 m/s 752 mmHg 73%
    13:00 +24°C° 0.4 mm 2 m/s 752 mmHg 71%
    14:00 +25°C° 0.2 mm 2 m/s 752 mmHg 70%
    15:00 +25°C° 0.2 mm 2 m/s 752 mmHg 69%
    16:00 +25°C° 0.2 mm 2 m/s 752 mmHg 67%
    17:00 +24°C° 0.2 mm 2 m/s 752 mmHg 71%
    18:00 +24°C° 0.2 mm 1 m/s 752 mmHg 75%
    19:00 +23°C° 0.2 mm 1 m/s 752 mmHg 79%
    20:00 +22°C° 0.1 mm 1 m/s 752 mmHg 82%
    21:00 +20°C° 0.1 mm 1 m/s 752 mmHg 84%
    22:00 +19°C° 0.1 mm 1 m/s 753 mmHg 87%
    23:00 +18°C° 0 mm 1 m/s 753 mmHg 87%

    Mâine, 25 Iulie, Joi

    Timp Temperatura Precipitaţii Vânt Presiune Umiditate
    00:00 +18°C° 0 mm 1 m/s 753 mmHg 88%
    01:00 +16°C° 0 mm 1 m/s 753 mmHg 88%
    02:00 +16°C° 0 mm 1 m/s 753 mmHg 88%
    03:00 +16°C° 0 mm 1 m/s 753 mmHg 88%
    04:00 +15°C° 0 mm 1 m/s 753 mmHg 88%
    05:00 +16°C° 0 mm 1 m/s 754 mmHg 85%
    06:00 +19°C° 0 mm 1 m/s 754 mmHg 83%
    07:00 +20°C° 0 mm 1 m/s 754 mmHg 80%
    08:00 +21°C° 0 mm 1 m/s 754 mmHg 76%
    09:00 +23°C° 0 mm 2 m/s 754 mmHg 71%
    10:00 +24°C° 0 mm 2 m/s 754 mmHg 67%
    11:00 +25°C° 0 mm 2 m/s 754 mmHg 63%
    12:00 +26°C° 0 mm 2 m/s 754 mmHg 60%
    13:00 +27°C° 0 mm 2 m/s 754 mmHg 56%
    14:00 +27°C° 0 mm 2 m/s 754 mmHg 56%
    15:00 +27°C° 0 mm 2 m/s 754 mmHg 57%
    16:00 +27°C° 0 mm 2 m/s 754 mmHg 57%
    17:00 +26°C° 0 mm 2 m/s 754 mmHg 63%
    18:00 +25°C° 0 mm 2 m/s 754 mmHg 69%
    19:00 +24°C° 0 mm 2 m/s 754 mmHg 74%
    20:00 +23°C° 0 mm 2 m/s 754 mmHg 77%
    21:00 +20°C° 0 mm 2 m/s 754 mmHg 80%
    22:00 +19°C° 0 mm 2 m/s 754 mmHg 83%
    23:00 +18°C° 0 mm 2 m/s 754 mmHg 84%

    Poimâine, 26 Iulie, Vineri

    Timp Temperatura Precipitaţii Vânt Presiune Umiditate
    00:00 +18°C° 0 mm 2 m/s 754 mmHg 85%
    01:00 +17°C° 0 mm 2 m/s 754 mmHg 86%
    02:00 +17°C° 0 mm 2 m/s 754 mmHg 87%
    03:00 +16°C° 0 mm 2 m/s 754 mmHg 87%
    04:00 +16°C° 0 mm 1 m/s 754 mmHg 88%
    05:00 +18°C° 0 mm 1 m/s 754 mmHg 85%
    06:00 +19°C° 0 mm 1 m/s 754 mmHg 81%
    07:00 +21°C° 0 mm 1 m/s 754 mmHg 78%
    08:00 +21°C° 0 mm 2 m/s 754 mmHg 73%
    09:00 +24°C° 0 mm 2 m/s 754 mmHg 67%
    10:00 +25°C° 0 mm 2 m/s 754 mmHg 61%
    11:00 +26°C° 0 mm 2 m/s 754 mmHg 60%
    12:00 +26°C° 0 mm 3 m/s 753 mmHg 59%
    13:00 +27°C° 0 mm 3 m/s 753 mmHg 57%
    14:00 +27°C° 0 mm 3 m/s 753 mmHg 58%
    15:00 +27°C° 0 mm 3 m/s 752 mmHg 58%
    16:00 +27°C° 0 mm 3 m/s 752 mmHg 58%
    17:00 +26°C° 0 mm 3 m/s 752 mmHg 65%
    18:00 +25°C° 0 mm 2 m/s 752 mmHg 71%
    19:00 +24°C° 0 mm 2 m/s 751 mmHg 78%
    20:00 +23°C° 0 mm 2 m/s 751 mmHg 81%
    21:00 +20°C° 0 mm 2 m/s 751 mmHg 85%
    22:00 +20°C° 0 mm 1 m/s 751 mmHg 88%
    23:00 +19°C° 0 mm 1 m/s 751 mmHg 87%

    27 Iulie, Sâmbătă

    Timp Temperatura Precipitaţii Vânt Presiune Umiditate
    00:00 +18°C° 0 mm 1 m/s 751 mmHg 87%
    01:00 +18°C° 0 mm 1 m/s 750 mmHg 86%
    02:00 +16°C° 0 mm 1 m/s 750 mmHg 84%
    03:00 +15°C° 0 mm 1 m/s 750 mmHg 81%
    04:00 +15°C° 0 mm 1 m/s 750 mmHg 79%
    05:00 +16°C° 0 mm 1 m/s 750 mmHg 78%
    06:00 +18°C° 0 mm 1 m/s 749 mmHg 77%
    07:00 +17°C° 0 mm 0 m/s 749 mmHg 76%
    08:00 +19°C° 0 mm 0 m/s 749 mmHg 73%
    09:00 +22°C° 0 mm 1 m/s 749 mmHg 70%
    10:00 +24°C° 0 mm 1 m/s 748 mmHg 67%
    11:00 +24°C° 0 mm 1 m/s 748 mmHg 65%
    12:00 +25°C° 0 mm 1 m/s 747 mmHg 62%
    13:00 +26°C° 0 mm 1 m/s 747 mmHg 60%
    14:00 +26°C° 0 mm 1 m/s 746 mmHg 60%
    15:00 +26°C° 0 mm 1 m/s 746 mmHg 59%
    16:00 +26°C° 0 mm 1 m/s 745 mmHg 59%
    17:00 +26°C° 0.1 mm 1 m/s 745 mmHg 64%
    18:00 +25°C° 0.1 mm 1 m/s 745 mmHg 70%
    19:00 +24°C° 0.1 mm 1 m/s 744 mmHg 76%
    20:00 +22°C° 0 mm 1 m/s 744 mmHg 78%
    21:00 +21°C° 0 mm 1 m/s 744 mmHg 81%
    22:00 +20°C° 0 mm 1 m/s 743 mmHg 83%
    23:00 +19°C° 0 mm 1 m/s 743 mmHg 84%

    28 Iulie, Duminică

    Timp Temperatura Precipitaţii Vânt Presiune Umiditate
    00:00 +19°C° 0 mm 1 m/s 742 mmHg 86%
    01:00 +18°C° 0 mm 1 m/s 742 mmHg 87%
    02:00 +18°C° 0 mm 1 m/s 741 mmHg 88%
    03:00 +18°C° 0 mm 1 m/s 741 mmHg 89%
    04:00 +16°C° 0 mm 2 m/s 740 mmHg 90%
    05:00 +17°C° 0 mm 2 m/s 740 mmHg 88%
    06:00 +18°C° 0 mm 2 m/s 739 mmHg 87%
    07:00 +19°C° 0 mm 2 m/s 739 mmHg 85%
    08:00 +20°C° 0.5 mm 3 m/s 738 mmHg 83%
    09:00 +22°C° 0.5 mm 3 m/s 738 mmHg 80%
    10:00 +23°C° 0.5 mm 4 m/s 737 mmHg 77%
    11:00 +22°C° 1.1 mm 5 m/s 737 mmHg 81%
    12:00 +20°C° 1.1 mm 6 m/s 737 mmHg 84%
    13:00 +18°C° 1.1 mm 7 m/s 737 mmHg 88%
    14:00 +17°C° 0.3 mm 6 m/s 737 mmHg 89%
    15:00 +16°C° 0.3 mm 6 m/s 737 mmHg 90%
    16:00 +15°C° 0.3 mm 5 m/s 737 mmHg 91%
    17:00 +14°C° 0 mm 5 m/s 737 mmHg 89%
    18:00 +14°C° 0 mm 5 m/s 737 mmHg 87%
    19:00 +13°C° 0 mm 5 m/s 737 mmHg 86%
    20:00 +13°C° 0 mm 5 m/s 737 mmHg 82%
    21:00 +12°C° 0 mm 5 m/s 737 mmHg 78%
    22:00 +12°C° 0 mm 4 m/s 737 mmHg 75%
    23:00 +11°C° 0 mm 4 m/s 737 mmHg 76%

    29 Iulie, Luni

    Timp Temperatura Precipitaţii Vânt Presiune Umiditate
    00:00 +10°C° 0 mm 4 m/s 737 mmHg 77%
    01:00 +8°C° 0 mm 4 m/s 737 mmHg 78%
    02:00 +7°C° 0 mm 4 m/s 737 mmHg 83%
    03:00 +7°C° 0 mm 3 m/s 737 mmHg 87%
    04:00 +5°C° 0 mm 3 m/s 737 mmHg 92%
    05:00 +5°C° 0 mm 3 m/s 738 mmHg 89%
    06:00 +7°C° 0 mm 3 m/s 738 mmHg 86%
    07:00 +7°C° 0 mm 4 m/s 738 mmHg 83%
    08:00 +8°C° 0.1 mm 4 m/s 737 mmHg 79%
    09:00 +10°C° 0.1 mm 4 m/s 737 mmHg 75%
    10:00 +10°C° 0.1 mm 5 m/s 737 mmHg 71%
    11:00 +11°C° 0.2 mm 4 m/s 737 mmHg 70%
    12:00 +11°C° 0.2 mm 4 m/s 737 mmHg 69%
    13:00 +11°C° 0.2 mm 4 m/s 738 mmHg 68%
    14:00 +11°C° 0.2 mm 4 m/s 738 mmHg 70%
    15:00 +11°C° 0.2 mm 4 m/s 738 mmHg 72%
    16:00 +11°C° 0.2 mm 4 m/s 738 mmHg 74%
    17:00 +10°C° 0.2 mm 4 m/s 738 mmHg 78%
    18:00 +9°C° 0.2 mm 3 m/s 738 mmHg 82%
    19:00 +9°C° 0.2 mm 3 m/s 738 mmHg 85%
    20:00 +8°C° 0.1 mm 3 m/s 738 mmHg 88%
    21:00 +7°C° 0.1 mm 2 m/s 739 mmHg 91%
    22:00 +6°C° 0.1 mm 2 m/s 739 mmHg 94%
    23:00 +6°C° 0.1 mm 2 m/s 739 mmHg 94%
    Arată mai mult